Location: ????????
(55.0808°N, 38.5463°E)
Time: 02:12:30
(UTC+00:00)

Nimbus 3 Rocket - Pass Details

Date: 20 September 2024
Orbit: 1072 x 1131 km, 99.9° (Epoch: 03 October)

Event Time Altitude Azimuth Distance (km) Brightness Sun altitude
Rises 00:33:42 0° 19° (NNE) 3,929 9.1 -21.4°
Reaches altitude 10° 00:37:17 10° 1° (N) 2,957 8.0 -21.0°
Maximum altitude 00:41:08 17° 325° (NW) 2,489 7.1 -20.5°
Enters shadow 00:44:33 11° 292° (WNW) 2,842 7.1 -20.1°
